小惑星ファエトン

(3200) Phaethon (2010)

English version
Home page
Updated on March 6, 2011

---------------------------------------------------------------------

・ プロフィール

・ 軌道要素

The following orbital elements are taken from MPO179644

Epoch 2011 Feb. 8.0 TT = JDT 2455600.5                  MPC
M  51.06520              (2000.0)            P               Q
n   0.68764705     Peri.  322.02295     -0.63139431     +0.67798354
a   1.2712345      Node   265.38230     -0.58634566     -0.73505455
e   0.8899596      Incl.   22.18691     -0.50748398     +0.00575602
P   1.43           H   14.6           G   0.15           U   0
From 2090 observations at 20 oppositions, 1983-2010, mean residual 0".52.

・ 星図

・ 光度変化

        H = 14.3  G = 0.15

---------------------------------------------------------------------

軌道要素はMPCのEphemerides and Orbital Elementsに掲載されたものです。
星図はステラナビゲータ Ver.8 (アストロアーツ) で作成したものです。
光度グラフはComet for Windowsで作成したものです。

---------------------------------------------------------------------

Copyright(C) Seiichi Yoshida (comet@aerith.net). All rights reserved.